sat.trackr.live / text

‹ back to catalog

STARLINK-5384

NORAD 54836 · 2022-177S

PAYLOAD ACTIVE UNKNOWN

§ Identity

Operator
Country
US
Launch date
2022-12-28
Launch site
AFETR
Launch vehicle
Mass (kg)
RCS (m²)

Purposes: comms

External: N2YO · Heavens-Above · Gunter

§ Orbital elements

Epoch: 2026-05-25T00:19:45.441696Z

Period
89.58 min
Inclination
42.9987°
Eccentricity
0.0003407
Mean motion
16.07463316 rev/d
Perigee alt
251.6 km
Apogee alt
256.1 km
Semi-major
6,631.9 km
B*
9.9792e-4
RAAN
35.5468°
Arg perigee
258.7171°
Mean anomaly
101.3327°
Rev number
18,894

§ Raw data

STARLINK-53841 54836U 22177S   26145.01372039  .00829832  36884-3  99792-3 0  99912 54836  42.9987  35.5468 0003407 258.7171 101.3327 16.07463316188947

JSON: /api/v1/satellites/54836 · /tle

For live sub-satellite position, see the globe view (requires WebGL).

§ Visibility from observer

Set your observer location to see the next 7 days of passes ≥ 10°. The values pass through the URL so the page stays shareable.

No JS? Fill the form by hand. The geolocation button needs JavaScript.